Regional Weather Roundup
Issued by NWS

Home | Current Version | Previous Version | Text Only | Print | Product List | Glossary Off
Versions: 1 2 3 4 5 6 7 8 9 10 11 12 13 14 15 16 17 18 19 20 21 22 23 24 25 26 27 28 29 30 31 32 33 34 35 36 37 38 39 40 41 42 43 44 45 46 47 48 49 50

000
ASUS43 KMKX 202100
RWRWI

WISCONSIN REGIONAL WEATHER ROUNDUP
NATIONAL WEATHER SERVICE MILWAUKEE/SULLIVAN WI
400 PM CDT MON OCT 20 2014

NOTE: "FAIR" INDICATES FEW OR NO CLOUDS BELOW 12,000 FEET WITH NO
SIGNIFICANT WEATHER AND/OR OBSTRUCTIONS TO VISIBILITY.

WIZ001-002-006>008-014>016-023>028-202200-
NORTHWEST WISCONSIN

CITY           SKY/WX    TMP DP  RH WIND       PRES   REMARKS
SUPERIOR ARPT  CLOUDY    51  41  67 N9        30.01S
ASHLAND        CLOUDY    53  39  59 N10       30.00R
HAYWARD        CLOUDY    52  38  58 NW8       29.99R
SIREN          MOSUNNY   55  39  54 N8        30.00R
CUMBERLAND     CLOUDY    52  37  58 NE8       29.98S
RICE LAKE      CLOUDY    53  40  59 N12       30.00R
CHETEK         CLOUDY    53  40  62 N6        29.98S
LADYSMITH      CLOUDY    53  40  61 NW9       29.98S
EAU CLAIRE     NOT AVBL
MENOMONIE      MOSUNNY   59  40  49 N12       29.97S
NEW RICHMOND   SUNNY     60  40  48 N7        29.98S
OSCEOLA        SUNNY     59  41  51 N10       30.00S
$$

WIZ003>005-009-010-017-018-202200-
NORTH CENTRAL WISCONSIN

CITY           SKY/WX    TMP DP  RH WIND       PRES   REMARKS
MANITOWISH WTR CLOUDY    46  41  82 N6        29.95R
ARBOR VITAE    CLOUDY    49  43  79 N12G18    29.95R
WOODRUFF       CLOUDY    49  43  79 N12G18    29.95R
RHINELANDER    CLOUDY    45  41  86 VRB5      29.95R
EAGLE RIVER    CLOUDY    46  42  86 N10G16    29.94R
LAND O LAKES   MIX PCPN  46  41  82 N9        29.95R
PHILLIPS       CLOUDY    49  40  72 N6        29.96R
TOMAHAWK       CLOUDY    48  40  74 NW6       29.95S
MEDFORD        CLOUDY    49  39  68 N6        29.95S
MERRILL        CLOUDY    49  41  73 NW10      29.94S
$$

WIZ029-030-035-036-043>047-202200-
CENTRAL WISCONSIN

CITY           SKY/WX    TMP DP  RH WIND       PRES   REMARKS
WAUSAU         CLOUDY    50  40  68 NW10      29.93R
MOSINEE        CLOUDY    48  43  81 NW12      29.96R
MARSHFIELD     CLOUDY    53  40  61 N8        29.95R
STEVENS POINT  CLOUDY    49  40  69 NW8       29.94R
WAUPACA        CLOUDY    54  45  71 NW6       29.93S
WAUTOMA        NOT AVBL
WISC RAPIDS    CLOUDY    55  39  54 N15       29.96R
CAMP DOUGLAS   NOT AVBL
$$

WIZ011>013-019>022-031-037>040-048>050-202200-
NORTHEAST WISCONSIN

CITY           SKY/WX    TMP DP  RH WIND       PRES   REMARKS
ANTIGO         CLOUDY    48  41  77 NW9       29.92S
SHAWANO        CLOUDY    54  43  65 NW7       29.91S
OCONTO         CLOUDY    51  43  75 NW8       29.90R
STURGEON BAY   CLOUDY    52  43  71 NW14      29.90R
GREEN BAY      CLOUDY    54  41  61 N9        29.91R
MANITOWOC      NOT AVBL
APPLETON       CLOUDY    52  41  66 NW13      29.92R
CLINTONVILLE   CLOUDY    52  43  71 NW7       29.92R
OSHKOSH        CLOUDY    53  44  71 NW14      29.92R
$$

WIZ032>034-041-042-053>061-202200-
SOUTHWEST WISCONSIN

CITY           SKY/WX    TMP DP  RH WIND       PRES   REMARKS
LA CROSSE      SUNNY     65  42  43 N13       29.93R
SPARTA         MOSUNNY   61  37  41 N12G20    29.95R
VIROQUA        SUNNY     61  40  47 NW15      29.93S
BOSCOBEL       MOSUNNY   66  41  40 NW10G20   29.93R
PRAIRIE DU CHI SUNNY     65  40  39 N10       29.92S
PLATTEVILLE    MOSUNNY   63  43  47 NW10      29.92S
$$

WIZ056-057-062-063-064-067-068-202200-
SOUTH CENTRAL WISCONSIN

CITY           SKY/WX    TMP DP  RH WIND       PRES   REMARKS
REEDSBURG      PTSUNNY   59  41  51 N15       29.92R
BARABOO/DELLS  CLOUDY    56  39  52 N7        29.93R
LONE ROCK      MOSUNNY   67  39  35 N15G25    29.92R
MINERAL POINT  MOSUNNY   64  37  36 NW13      29.91S
MADISON        CLOUDY    57  41  55 N10       29.93R
MIDDLETON      CLOUDY    59  40  49 N13G18    29.92R
WATERTOWN      CLOUDY    55  40  59 N9G18     29.91R
MONROE         PTSUNNY   61  43  51 N12       29.90S
JANESVILLE     PTSUNNY   63  39  42 N14       29.90R
$$

WIZ051-052-058>065-066-070>072-202200-
SOUTHEAST WISCONSIN

CITY           SKY/WX    TMP DP  RH WIND       PRES   REMARKS
MILWAUKEE      CLOUDY    55  42  61 N14       29.90R
WAUKESHA       NOT AVBL
MILWAUKEE/TIMM NOT AVBL
RACINE         CLOUDY    53  46  77 N8        29.91R
BURLINGTON     CLOUDY    55  42  61 NW10G18   29.91R
KENOSHA        CLOUDY    55  45  68 N6        29.90R
FOND DU LAC    CLOUDY    53  43  68 NW13      29.92R
SHEBOYGAN      CLOUDY    53  43  68 NW8       29.90R
WEST BEND      CLOUDY    52  41  66 NW9       29.91R
JUNEAU         CLOUDY    52  42  68 NW12G18   29.93R
$$

LSZ147-162-202200-
LAKE SUPERIOR

STATION/POSITION TIME  TEMP    WIND        PRES    WAVE
                       AIR SEA DIR/SP/G            HT/PER
                 (UTC) (F)     (DEG/KT/KT) (MB)    (FT/S)
W MID LAKE BUOY  1950   47 46  310/  4/  4 1015.0R   1
DEVILS ISLAND    2000   48      10/  8/  9 1016.0R
PORT WING        2000   51     360/  4/  6 1015.9R
SAXON HARBOR     2000   51      20/  5/  6 1015.2R
$$

LMZ867-665-643>646-202200-
LAKE MICHIGAN

STATION/POSITION TIME  TEMP    WIND        PRES    WAVE
                       AIR SEA DIR/SP/G            HT/PER
                 (UTC) (F)     (DEG/KT/KT) (MB)    (FT/S)
CHAMBERS ISLAND  2000   51     310/ 12/ 16 1011.9R
N MID LAKE BUOY  1950   49 51  340/ 17/ 21 1010.8R   3/ 4
NORTHPORT PIER   2000   50     330/ 15/ 21 1011.5R
KEWAUNEE LAKESHO 2000   52     340/  7/ 11 1011.1R
SHEBOYGAN LAKESH 2000   53 51  330/ 12/ 14 1012.4R
PORT WASHINGTON  2000   55     320/  6/ 10 1012.5
ATWATER BUOY     2000   54     320/ 12/ 16 1012.9R
MILWAUKEE LAKESH 2000   55     320/ 10/ 15   N/A
S MID LAKE BUOY  1950   53 55  330/ 17/ 19 1010.9R   2/ 4
KENOSHA   LAKESH 2000   53      10/ 17/ 19 1011.2R
$$

TC  - TEMPERATURE IN CELSIUS
VSB - VISIBILITY IN STATUTE MILES
WCI - WIND CHILL INDEX
HX  - HEAT INDEX



USA.gov is the U.S. government's official web portal to all federal, state and local government web resources and services.